Weather reports worldwide

Advertisment
Ryhill, United Kingdom (99162): temperature & dewpoint: 11.07.2019 06:00:00 - 17.07.2019 06:00:00 (BST)Ryhill, United Kingdom (99162): precipitation: 11.07.2019 06:00:00 - 17.07.2019 06:00:00 (BST)
Date & Time tt [°C] td [°C] rr [mm]
17.07.2019 06:00:00 14,7 11,8 0,0
17.07.2019 05:00:00 13,9 11,3 0,0
17.07.2019 04:00:00 14,9 11,1 0,0
17.07.2019 03:00:00 14,0 10,8 0,0
17.07.2019 02:00:00 14,1 10,9 0,0
17.07.2019 01:00:00 14,5 10,3 0,0
17.07.2019 00:00:00 16,5 11,1 0,0
16.07.2019 23:00:00 17,6 11,4 0,0
16.07.2019 22:00:00 18,9 11,7 0,0
16.07.2019 21:00:00 19,7 11,2 0,0
16.07.2019 20:00:00 20,7 11,0 0,0
16.07.2019 19:00:00 22,5 10,8 0,0
16.07.2019 18:00:00 23,3 11,2 0,0
16.07.2019 17:00:00 24,2 11,3 0,0
16.07.2019 16:00:00 23,3 12,9 0,0
16.07.2019 15:00:00 21,1 12,8 0,0
16.07.2019 14:00:00 20,2 12,1 0,0
16.07.2019 13:00:00 19,8 11,8 0,0
16.07.2019 12:00:00 19,1 12,3 0,0
16.07.2019 11:00:00 18,5 12,5 0,0
16.07.2019 10:00:00 19,4 12,5 0,0
16.07.2019 09:00:00 18,1 13,5 0,0
16.07.2019 08:00:00 15,6 12,9 0,0
16.07.2019 07:00:00 14,7 12,7 0,0
16.07.2019 06:00:00 13,6 11,7 0,0
16.07.2019 05:00:00 13,5 12,1 0,0
16.07.2019 04:00:00 13,3 12,6 0,0
16.07.2019 03:00:00 13,2 12,5 0,0
16.07.2019 02:00:00 13,7 12,7 0,0
16.07.2019 01:00:00 13,6 12,5 0,0
16.07.2019 00:00:00 14,1 12,2 0,0
15.07.2019 23:00:00 14,8 12,7 0,0
15.07.2019 22:00:00 16,2 13,4 0,0
15.07.2019 21:00:00 18,6 11,6 0,0
15.07.2019 20:00:00 20,4 13,0 0,0
15.07.2019 19:00:00 22,2 12,1 0,0
15.07.2019 18:00:00 21,8 11,2 0,0
15.07.2019 17:00:00 21,6 12,5 0,0
15.07.2019 16:00:00 21,4 11,9 0,0
15.07.2019 15:00:00 22,7 11,3 0,0
15.07.2019 14:00:00 21,6 11,4 0,0
15.07.2019 13:00:00 20,9 11,8 0,0
15.07.2019 12:00:00 20,1 11,5 0,0
15.07.2019 11:00:00 18,3 11,4 0,0
15.07.2019 10:00:00 17,1 11,9 0,0
15.07.2019 09:00:00 15,1 11,1 0,0
15.07.2019 08:00:00 13,5 10,9 0,0
15.07.2019 07:00:00 12,3 11,5 0,0
15.07.2019 06:00:00 11,5 10,9 0,0
15.07.2019 05:00:00 10,9 10,4 0,0
15.07.2019 04:00:00 9,8 9,4 0,0
15.07.2019 03:00:00 9,8 9,1 0,0
15.07.2019 02:00:00 10,4 9,3 0,0
15.07.2019 01:00:00 10,8 9,7 0,0
15.07.2019 00:00:00 11,4 10,0 0,0
14.07.2019 23:00:00 11,8 10,0 0,0
14.07.2019 22:00:00 13,5 10,3 0,0
14.07.2019 21:00:00 15,2 10,8 0,0
14.07.2019 20:00:00 16,9 11,5 0,0
14.07.2019 19:00:00 17,5 11,4 0,0
14.07.2019 18:00:00 18,9 11,8 0,0
14.07.2019 17:00:00 19,4 11,2 0,0
14.07.2019 16:00:00 18,8 11,8 0,0
14.07.2019 15:00:00 17,6 12,3 0,0
14.07.2019 14:00:00 17,8 12,2 0,0
14.07.2019 13:00:00 16,2 11,3 0,0
14.07.2019 12:00:00 17,7 12,2 0,0
14.07.2019 11:00:00 17,4 12,1 0,0
14.07.2019 10:00:00 16,4 11,8 0,0
14.07.2019 09:00:00 15,5 12,1 0,0
14.07.2019 08:00:00 14,3 12,8 0,0
14.07.2019 07:00:00 13,5 13,1 0,2
14.07.2019 06:00:00 13,2 12,9 0,0
14.07.2019 05:00:00 13,0 12,7 0,4
14.07.2019 04:00:00 13,6 13,2 0,2
14.07.2019 03:00:00 13,8 13,3 0,0
14.07.2019 02:00:00 13,9 13,3 0,0
14.07.2019 01:00:00 14,0 13,3 0,0
14.07.2019 00:00:00 14,2 13,6 0,0
13.07.2019 23:00:00 14,7 13,6 0,2
13.07.2019 22:00:00 16,4 13,1 0,2
13.07.2019 21:00:00 17,3 13,1 0,0
13.07.2019 20:00:00 18,8 13,9 0,0
13.07.2019 19:00:00 19,8 13,8 0,0
13.07.2019 18:00:00 20,6 13,1 0,0
13.07.2019 17:00:00 21,3 11,6 0,0
13.07.2019 16:00:00 21,0 11,9 0,0
13.07.2019 15:00:00 19,9 13,5 0,0
13.07.2019 14:00:00 19,8 13,1 0,0
13.07.2019 13:00:00 19,0 13,9 0,0
13.07.2019 12:00:00 18,2 13,0 0,0
13.07.2019 11:00:00 16,4 13,2 0,0
13.07.2019 10:00:00 16,7 13,5 0,0
13.07.2019 09:00:00 15,9 13,1 0,0
13.07.2019 08:00:00 15,1 13,2 0,0
13.07.2019 07:00:00 15,0 12,9 0,0
13.07.2019 06:00:00 14,6 12,6 0,0
13.07.2019 05:00:00 14,5 12,3 0,0
13.07.2019 04:00:00 14,1 12,4 0,0
13.07.2019 03:00:00 13,5 11,8 0,0
13.07.2019 02:00:00 13,7 11,7 0,0
13.07.2019 01:00:00 13,9 11,8 0,0
13.07.2019 00:00:00 14,4 11,7 0,0
12.07.2019 23:00:00 14,9 11,8 0,0
12.07.2019 22:00:00 15,7 11,9 0,0
12.07.2019 21:00:00 16,9 12,6 0,0
12.07.2019 20:00:00 17,8 13,2 0,2
12.07.2019 19:00:00 19,2 13,2 0,0
12.07.2019 18:00:00 21,3 13,7 0,0
12.07.2019 17:00:00 21,0 13,6 0,0
12.07.2019 16:00:00 22,4 13,3 0,0
12.07.2019 15:00:00 22,3 12,9 0,0
12.07.2019 14:00:00 21,6 13,5 0,0
12.07.2019 13:00:00 21,2 12,4 0,0
12.07.2019 12:00:00 19,5 11,5 0,0
12.07.2019 11:00:00 19,3 12,5 0,0
12.07.2019 10:00:00 18,3 12,9 0,0
12.07.2019 09:00:00 17,4 13,0 0,0
12.07.2019 08:00:00 16,6 13,2 0,0
12.07.2019 07:00:00 15,4 13,1 0,0
12.07.2019 06:00:00 14,7 13,4 0,0
12.07.2019 05:00:00 14,3 12,9 0,0
12.07.2019 04:00:00 13,7 12,0 0,0
12.07.2019 03:00:00 13,1 11,4 0,0
12.07.2019 02:00:00 13,6 11,4 0,0
12.07.2019 01:00:00 14,5 12,0 0,0
12.07.2019 00:00:00 15,0 12,5 0,0
11.07.2019 23:00:00 15,4 13,0 0,0
11.07.2019 22:00:00 15,6 14,0 0,0
11.07.2019 21:00:00 17,0 15,2 0,0
11.07.2019 20:00:00 16,5 14,9 2,4
11.07.2019 19:00:00 21,2 14,5 0,0
11.07.2019 18:00:00 22,6 14,4 0,0
11.07.2019 17:00:00 22,3 13,9 0,0
11.07.2019 16:00:00 22,9 13,8 0,0
11.07.2019 15:00:00 22,7 14,9 0,0
11.07.2019 14:00:00 21,0 14,9 0,0
11.07.2019 13:00:00 20,6 14,6 0,0
11.07.2019 12:00:00 18,9 13,8 0,0
11.07.2019 11:00:00 18,7 13,8 0,0
11.07.2019 10:00:00 19,5 15,3 0,0
11.07.2019 09:00:00 17,8 14,2 0,0
11.07.2019 08:00:00 16,9 14,7 0,0
11.07.2019 07:00:00 15,6 14,1 0,0
11.07.2019 06:00:00 15,1 14,2 0,0

tt = temperature
td = dewpoint
rr = precipitation

Next stations